Weather History for KFZY - August, 2014

Change the Weather History Date:

Monday, August 25, 2014

  Actual Average (KSYR) Record (KSYR)
Temperature  
Mean Temperature 68 °F 69 °F  
Max Temperature 82 °F 79 °F 97 °F (1948)
Min Temperature 55 °F 58 °F 38 °F (1940)
Degree Days  
Heating Degree Days 0 1  
Month to date heating degree days 12  
Since 1 June heating degree days 81  
Since 1 July heating degree days 20  
Cooling Degree Days 3 5  
Month to date cooling degree days 141  
Year to date cooling degree days 487  
Since 1 June cooling degree days 457  
Growing Degree Days 18 (Base 50)    
Moisture  
Dew Point 60 °F    
Average Humidity 80    
Maximum Humidity 100    
Minimum Humidity 48    
Precipitation  
Precipitation 0.00 in 0.11 in 1.25 in (1998)
Month to date precipitation 2.89  
Year to date precipitation 23.91  
Snow  
Snow 0.00 in 0.00 in 0.00 in (2002)
Month to date snowfall 0.0  
Since 1 June snowfall 0.0  
Since 1 July snowfall 0.0  
Snow Depth -    
Sea Level Pressure  
Sea Level Pressure 30.17 in    
Wind  
Wind Speed 2 mph (South)    
Max Wind Speed 8 mph    
Max Gust Speed -    
Visibility 7 miles    
Events Fog    
T = Trace of Precipitation, MM = Missing Value Source: NWS Daily Summary

Daily Weather History Graph

Daily Weather History Graph

Search for Another Location

Airport or City:

Trip Planner

Search our weather history database for the weather conditions in past years. The results will help you decide how hot, cold, wet, or windy it might be!

Date:

Astronomy

Aug. 25, 2014 Rise Set
Actual Time 6:21 AM EDT 7:52 PM EDT
Civil Twilight 5:51 AM EDT 8:22 PM EDT
Nautical Twilight 5:15 AM EDT 8:58 PM EDT
Astronomical Twilight 4:36 AM EDT 9:36 PM EDT
Moon 6:26 AM EDT (8/25) 7:39 PM EDT (8/25)
Length of Visible Light 14h 30m
Length of Day
13h 30m
New Moon, 0% of the Moon is Illuminated
Aug 25
New Moon
Sep 2
First Quarter
Sep 8
Full
Sep 15
Last Quarter
Sep 24
New

Hourly Weather History & Observations

Time (EDT) Temp. Heat Index Dew Point Humidity Pressure Visibility Wind Dir Wind Speed Gust Speed Precip Events Conditions
12:54 AM 59.0 °F - 57.0 °F 93% 30.17 in 7.0 mi Calm Calm - N/A   Clear
1:54 AM 57.9 °F - 55.9 °F 93% 30.17 in 10.0 mi Calm Calm - N/A   Clear
2:54 AM 57.9 °F - 55.0 °F 90% 30.16 in 7.0 mi Calm Calm - N/A   Clear
3:54 AM 57.0 °F - 55.0 °F 93% 30.16 in 6.0 mi Calm Calm - N/A   Clear
5:11 AM 55.9 °F - 54.0 °F 93% 30.17 in 2.5 mi Calm Calm - N/A   Clear
5:19 AM 57.0 °F - 54.0 °F 89% 30.17 in 5.0 mi Calm Calm - N/A   Clear
5:54 AM 57.9 °F - 55.9 °F 93% 30.17 in 6.0 mi Calm Calm - N/A   Clear
6:54 AM 59.0 °F - 55.9 °F 90% 30.19 in 6.0 mi SE 3.5 mph - N/A   Clear
7:54 AM 63.0 °F - 60.1 °F 90% 30.20 in 10.0 mi Variable 3.5 mph - N/A   Clear
8:10 AM 63.0 °F - 60.1 °F 90% 30.21 in 10.0 mi SSE 3.5 mph - N/A   Scattered Clouds
8:18 AM 63.0 °F - 60.1 °F 90% 30.21 in 2.5 mi Variable 3.5 mph - N/A   Mostly Cloudy
8:21 AM 63.0 °F - 61.0 °F 93% 30.21 in 1.0 mi SSE 3.5 mph - N/A   Mostly Cloudy
8:28 AM 63.0 °F - 61.0 °F 93% 30.21 in 0.5 mi Variable 3.5 mph - N/A Fog Fog
8:52 AM 62.6 °F - 62.6 °F 100% 30.21 in 1.2 mi South 3.5 mph - N/A   Overcast
8:54 AM 64.0 °F - 62.1 °F 93% 30.21 in 1.5 mi Variable 3.5 mph - N/A   Overcast
8:59 AM 64.0 °F - 62.1 °F 93% 30.21 in 3.0 mi Calm Calm - N/A   Overcast
9:20 AM 66.0 °F - 63.0 °F 90% 30.22 in 10.0 mi South 3.5 mph - N/A   Scattered Clouds
9:54 AM 69.1 °F - 64.0 °F 84% 30.22 in 10.0 mi Calm Calm - N/A   Clear
10:54 AM 73.9 °F - 63.0 °F 68% 30.21 in 10.0 mi SSE 3.5 mph - N/A   Clear
11:54 AM 77.0 °F - 62.1 °F 60% 30.20 in 10.0 mi Variable 4.6 mph - N/A   Clear
12:54 PM 79.0 °F - 60.1 °F 52% 30.18 in 10.0 mi South 6.9 mph - N/A   Clear
1:54 PM 80.1 °F 80.9 °F 60.1 °F 50% 30.17 in 10.0 mi Calm Calm - N/A   Partly Cloudy
2:54 PM 80.1 °F 80.7 °F 59.0 °F 48% 30.15 in 10.0 mi Variable 3.5 mph - N/A   Clear
3:54 PM 81.0 °F 81.9 °F 62.1 °F 52% 30.14 in 10.0 mi Calm Calm - N/A   Partly Cloudy
4:54 PM 81.0 °F 81.7 °F 61.0 °F 50% 30.13 in 10.0 mi SW 8.1 mph - N/A   Clear
5:54 PM 80.1 °F 80.9 °F 60.1 °F 50% 30.13 in 10.0 mi SW 4.6 mph - N/A   Clear
6:54 PM 78.1 °F - 60.1 °F 54% 30.12 in 10.0 mi SSW 4.6 mph - N/A   Clear
7:54 PM 70.0 °F - 62.1 °F 76% 30.11 in 10.0 mi Calm Calm - N/A   Clear
8:54 PM 64.9 °F - 61.0 °F 87% 30.12 in 10.0 mi Calm Calm - N/A   Clear
9:54 PM 63.0 °F - 61.0 °F 93% 30.12 in 10.0 mi Calm Calm - N/A   Clear
11:54 PM 64.0 °F - 60.1 °F 87% 30.11 in 10.0 mi Calm Calm - N/A   Clear